Time,TemperatureF,DewpointF,PressureIn,WindDirection,WindDirectionDegrees,WindSpeedMPH,WindSpeedGustMPH,Humidity,HourlyPrecipIn,Conditions,Clouds,dailyrainin,SolarRadiationWatts/m^2,SoftwareType,DateUTC
2013-06-25 00:00:00,68.0,59.4,29.94,North,0,0.0,0.0,74,0.00,,,0.00,0000,Weather View 32 v70,2013-06-25 04:00:00,
2013-06-25 00:05:00,67.9,59.3,29.94,North,0,0.0,0.0,74,0.00,,,0.00,0000,Weather View 32 v70,2013-06-25 04:05:00,
2013-06-25 00:10:00,67.9,59.7,29.94,North,0,0.0,0.0,75,0.00,,,0.00,0000,Weather View 32 v70,2013-06-25 04:10:00,
2013-06-25 00:15:00,67.9,59.7,29.95,North,0,0.0,0.0,75,0.00,,,0.00,0000,Weather View 32 v70,2013-06-25 04:15:00,
2013-06-25 00:20:00,67.9,59.7,29.95,North,0,0.0,0.0,75,0.00,,,0.00,0000,Weather View 32 v70,2013-06-25 04:20:00,
2013-06-25 00:25:00,67.9,59.7,29.95,North,0,0.0,0.0,75,0.00,,,0.00,0000,Weather View 32 v70,2013-06-25 04:25:00,
2013-06-25 00:30:00,67.7,59.8,29.95,NW,315,0.0,0.0,76,0.00,,,0.00,0000,Weather View 32 v70,2013-06-25 04:30:00,
2013-06-25 00:35:00,67.5,60.0,29.95,NW,315,0.0,2.0,77,0.00,,,0.00,0000,Weather View 32 v70,2013-06-25 04:35:00,
2013-06-25 00:45:00,67.1,59.3,29.95,NW,315,0.0,2.0,76,0.00,,,0.00,0000,Weather View 32 v70,2013-06-25 04:45:00,
2013-06-25 00:50:00,67.1,59.6,29.96,NW,315,0.0,2.0,77,0.00,,,0.00,0008,Weather View 32 v70,2013-06-25 04:50:00,
2013-06-25 01:00:00,66.8,59.3,29.96,WNW,293,0.0,2.0,77,0.00,,,0.00,0000,Weather View 32 v70,2013-06-25 05:00:00,
2013-06-25 01:10:00,66.7,59.2,29.96,WNW,293,0.0,2.0,77,0.00,,,0.00,0000,Weather View 32 v70,2013-06-25 05:10:00,
2013-06-25 01:15:00,66.6,59.1,29.96,WNW,293,0.0,2.0,77,0.00,,,0.00,0000,Weather View 32 v70,2013-06-25 05:15:00,
2013-06-25 01:20:00,66.5,59.4,29.96,WNW,293,0.0,2.0,78,0.00,,,0.00,0008,Weather View 32 v70,2013-06-25 05:20:00,
2013-06-25 01:30:00,66.3,59.3,29.97,WNW,293,0.0,2.0,78,0.00,,,0.00,0000,Weather View 32 v70,2013-06-25 05:30:00,
2013-06-25 01:35:00,66.2,59.1,29.96,WNW,293,0.0,0.0,78,0.00,,,0.00,0000,Weather View 32 v70,2013-06-25 05:35:00,
2013-06-25 01:45:00,66.1,59.0,29.96,West,270,0.0,1.0,78,0.00,,,0.00,0000,Weather View 32 v70,2013-06-25 05:45:00,
2013-06-25 01:50:00,66.2,59.1,29.96,West,270,0.0,1.0,78,0.00,,,0.00,0000,Weather View 32 v70,2013-06-25 05:50:00,
2013-06-25 02:00:00,66.0,59.3,29.96,West,270,0.0,1.0,79,0.00,,,0.00,0000,Weather View 32 v70,2013-06-25 06:00:00,
2013-06-25 02:10:00,66.0,59.3,29.96,West,270,0.0,1.0,79,0.00,,,0.00,0000,Weather View 32 v70,2013-06-25 06:10:00,
2013-06-25 02:20:00,65.8,59.1,29.96,West,270,0.0,1.0,79,0.00,,,0.00,0000,Weather View 32 v70,2013-06-25 06:20:00,
2013-06-25 02:25:00,65.7,59.3,29.95,West,270,0.0,1.0,80,0.00,,,0.00,0000,Weather View 32 v70,2013-06-25 06:25:00,
2013-06-25 02:30:00,65.6,59.2,29.95,West,270,0.0,1.0,80,0.00,,,0.00,0000,Weather View 32 v70,2013-06-25 06:30:00,
2013-06-25 02:36:00,65.6,59.2,29.95,West,270,0.0,1.0,80,0.00,,,0.00,0000,Weather View 32 v70,2013-06-25 06:36:00,
2013-06-25 02:45:00,65.4,59.1,29.95,West,270,0.0,0.0,80,0.00,,,0.00,0000,Weather View 32 v70,2013-06-25 06:45:00,
2013-06-25 02:50:00,65.3,59.0,29.95,West,270,0.0,0.0,80,0.00,,,0.00,0000,Weather View 32 v70,2013-06-25 06:50:00,
2013-06-25 02:55:00,65.3,59.0,29.95,West,270,0.0,0.0,80,0.00,,,0.00,0008,Weather View 32 v70,2013-06-25 06:55:00,
2013-06-25 03:00:00,65.2,58.9,29.94,West,270,0.0,0.0,80,0.00,,,0.00,0000,Weather View 32 v70,2013-06-25 07:00:00,
2013-06-25 03:05:00,65.2,58.9,29.94,West,270,0.0,1.0,80,0.00,,,0.00,0000,Weather View 32 v70,2013-06-25 07:05:00,
2013-06-25 03:15:00,65.2,58.9,29.94,West,270,0.0,1.0,80,0.00,,,0.00,0000,Weather View 32 v70,2013-06-25 07:15:00,
2013-06-25 03:20:00,65.2,59.2,29.94,West,270,0.0,1.0,81,0.00,,,0.00,0000,Weather View 32 v70,2013-06-25 07:20:00,
2013-06-25 03:25:00,65.1,59.1,29.94,WNW,293,0.0,1.0,81,0.00,,,0.00,0008,Weather View 32 v70,2013-06-25 07:25:00,
2013-06-25 03:35:00,65.0,59.0,29.93,WSW,248,0.0,1.0,81,0.00,,,0.00,0000,Weather View 32 v70,2013-06-25 07:35:00,
2013-06-25 03:40:00,64.9,58.9,29.93,WNW,293,0.0,1.0,81,0.00,,,0.00,0000,Weather View 32 v70,2013-06-25 07:40:00,
2013-06-25 03:45:00,64.8,58.8,29.93,WNW,293,0.0,1.0,81,0.00,,,0.00,0000,Weather View 32 v70,2013-06-25 07:45:00,
2013-06-25 03:55:00,64.9,58.9,29.93,WNW,293,0.0,1.0,81,0.00,,,0.00,0008,Weather View 32 v70,2013-06-25 07:55:00,
2013-06-25 04:05:00,64.9,59.2,29.93,WNW,293,0.0,1.0,82,0.00,,,0.00,0000,Weather View 32 v70,2013-06-25 08:05:00,
2013-06-25 04:15:00,64.8,58.8,29.94,WNW,293,0.0,1.0,81,0.00,,,0.00,0000,Weather View 32 v70,2013-06-25 08:15:00,
2013-06-25 04:20:00,64.8,58.8,29.94,WNW,293,0.0,1.0,81,0.00,,,0.00,0000,Weather View 32 v70,2013-06-25 08:20:00,
2013-06-25 04:25:00,64.7,58.7,29.94,WNW,293,0.0,1.0,81,0.00,,,0.00,0016,Weather View 32 v70,2013-06-25 08:25:00,
2013-06-25 04:30:00,64.4,58.4,29.93,WNW,293,0.0,0.0,81,0.00,,,0.00,0000,Weather View 32 v70,2013-06-25 08:30:00,
2013-06-25 04:39:00,64.4,58.4,29.94,WNW,293,0.0,0.0,81,0.00,,,0.00,0000,Weather View 32 v70,2013-06-25 08:39:00,
2013-06-25 04:45:00,64.5,58.6,29.94,WNW,293,0.0,0.0,81,0.00,,,0.00,0000,Weather View 32 v70,2013-06-25 08:45:00,
2013-06-25 04:55:00,64.8,58.8,29.94,WNW,293,0.0,0.0,81,0.00,,,0.00,0000,Weather View 32 v70,2013-06-25 08:55:00,
2013-06-25 05:05:00,64.9,58.9,29.93,WNW,293,0.0,0.0,81,0.00,,,0.00,0000,Weather View 32 v70,2013-06-25 09:05:00,
2013-06-25 05:15:00,65.0,58.7,29.93,WNW,293,0.0,0.0,80,0.00,,,0.00,0000,Weather View 32 v70,2013-06-25 09:15:00,
2013-06-25 05:20:00,65.0,58.7,29.94,WNW,293,0.0,0.0,80,0.00,,,0.00,0000,Weather View 32 v70,2013-06-25 09:20:00,
2013-06-25 05:25:00,65.0,59.0,29.94,WNW,293,0.0,0.0,81,0.00,,,0.00,0000,Weather View 32 v70,2013-06-25 09:25:00,
2013-06-25 05:30:00,65.1,59.1,29.94,WNW,293,0.0,0.0,81,0.00,,,0.00,0000,Weather View 32 v70,2013-06-25 09:30:00,
2013-06-25 05:39:00,65.1,59.1,29.94,WNW,293,0.0,0.0,81,0.00,,,0.00,0000,Weather View 32 v70,2013-06-25 09:39:00,
2013-06-25 05:45:00,65.1,59.1,29.93,WNW,293,0.0,0.0,81,0.00,,,0.00,0000,Weather View 32 v70,2013-06-25 09:45:00,
2013-06-25 05:50:00,65.2,59.2,29.93,WNW,293,0.0,0.0,81,0.00,,,0.00,0000,Weather View 32 v70,2013-06-25 09:50:00,
2013-06-25 05:55:00,65.3,59.0,29.93,WNW,293,0.0,0.0,80,0.00,,,0.00,0008,Weather View 32 v70,2013-06-25 09:55:00,
2013-06-25 06:00:00,65.3,59.3,29.93,WNW,293,0.0,0.0,81,0.00,,,0.00,0008,Weather View 32 v70,2013-06-25 10:00:00,
2013-06-25 06:05:00,65.4,59.1,29.94,WNW,293,0.0,0.0,80,0.00,,,0.00,0016,Weather View 32 v70,2013-06-25 10:05:00,
2013-06-25 06:15:00,65.7,59.3,29.94,WNW,293,0.0,0.0,80,0.00,,,0.00,0016,Weather View 32 v70,2013-06-25 10:15:00,
2013-06-25 06:20:00,65.7,59.3,29.94,WNW,293,0.0,0.0,80,0.00,,,0.00,0024,Weather View 32 v70,2013-06-25 10:20:00,
2013-06-25 06:25:00,65.8,59.4,29.94,WNW,293,0.0,0.0,80,0.00,,,0.00,0040,Weather View 32 v70,2013-06-25 10:25:00,
2013-06-25 06:35:00,66.0,59.6,29.93,WNW,293,0.0,0.0,80,0.00,,,0.00,0040,Weather View 32 v70,2013-06-25 10:35:00,
2013-06-25 06:40:00,66.1,59.8,29.93,WNW,293,0.0,0.0,80,0.00,,,0.00,0040,Weather View 32 v70,2013-06-25 10:40:00,
2013-06-25 06:50:00,66.3,60.0,29.93,WNW,293,0.0,0.0,80,0.00,,,0.00,0040,Weather View 32 v70,2013-06-25 10:50:00,
2013-06-25 06:55:00,66.3,60.0,29.93,WNW,293,0.0,0.0,80,0.00,,,0.00,0032,Weather View 32 v70,2013-06-25 10:55:00,
2013-06-25 07:00:00,66.3,60.0,29.93,WNW,293,0.0,0.0,80,0.00,,,0.00,0040,Weather View 32 v70,2013-06-25 11:00:00,
2013-06-25 07:05:00,66.3,60.0,29.93,WNW,293,0.0,0.0,80,0.00,,,0.00,0032,Weather View 32 v70,2013-06-25 11:05:00,
2013-06-25 07:15:00,66.7,60.3,29.94,WNW,293,0.0,0.0,80,0.00,,,0.00,0064,Weather View 32 v70,2013-06-25 11:15:00,
2013-06-25 07:20:00,66.8,60.4,29.94,WNW,293,0.0,0.0,80,0.00,,,0.00,0056,Weather View 32 v70,2013-06-25 11:20:00,
2013-06-25 07:25:00,67.0,61.0,29.94,WNW,293,0.0,0.0,81,0.00,,,0.00,0048,Weather View 32 v70,2013-06-25 11:25:00,
2013-06-25 07:30:00,67.1,60.7,29.93,WNW,293,0.0,0.0,80,0.00,,,0.00,0064,Weather View 32 v70,2013-06-25 11:30:00,
2013-06-25 07:40:00,67.4,60.9,29.94,WNW,293,0.0,0.0,80,0.00,,,0.00,0088,Weather View 32 v70,2013-06-25 11:40:00,
2013-06-25 07:45:00,67.7,61.3,29.94,WNW,293,0.0,0.0,80,0.00,,,0.00,0104,Weather View 32 v70,2013-06-25 11:45:00,
2013-06-25 07:50:00,68.6,62.2,29.94,West,270,0.0,0.0,80,0.00,,,0.00,0080,Weather View 32 v70,2013-06-25 11:50:00,
2013-06-25 08:00:00,70.4,63.5,29.93,WSW,248,2.0,3.0,79,0.00,,,0.00,0352,Weather View 32 v70,2013-06-25 12:00:00,
2013-06-25 08:05:00,71.2,64.3,29.94,WNW,293,0.0,3.0,79,0.00,,,0.00,0376,Weather View 32 v70,2013-06-25 12:05:00,
2013-06-25 08:15:00,72.8,64.7,29.94,West,270,0.0,3.0,76,0.00,,,0.00,0408,Weather View 32 v70,2013-06-25 12:15:00,
2013-06-25 08:20:00,73.3,64.5,29.93,NW,315,0.0,4.0,74,0.00,,,0.00,0384,Weather View 32 v70,2013-06-25 12:20:00,
2013-06-25 08:25:00,74.0,65.1,29.92,West,270,0.0,4.0,74,0.00,,,0.00,0384,Weather View 32 v70,2013-06-25 12:25:00,
2013-06-25 08:30:00,74.8,65.1,29.93,West,270,0.0,4.0,72,0.00,,,0.00,0416,Weather View 32 v70,2013-06-25 12:30:00,
2013-06-25 08:40:00,75.9,65.8,29.92,West,270,0.0,4.0,71,0.00,,,0.00,0432,Weather View 32 v70,2013-06-25 12:40:00,
2013-06-25 08:50:00,76.4,65.8,29.93,WSW,248,0.0,4.0,70,0.00,,,0.00,0480,Weather View 32 v70,2013-06-25 12:50:00,
2013-06-25 08:55:00,76.7,65.7,29.93,NW,315,0.0,4.0,69,0.00,,,0.00,0480,Weather View 32 v70,2013-06-25 12:55:00,
2013-06-25 09:00:00,77.1,66.1,29.93,NW,315,0.0,4.0,69,0.00,,,0.00,0512,Weather View 32 v70,2013-06-25 13:00:00,
2013-06-25 09:10:00,78.7,66.8,29.93,NW,315,0.0,4.0,67,0.00,,,0.00,0544,Weather View 32 v70,2013-06-25 13:10:00,
2013-06-25 09:20:00,79.3,66.0,29.93,SW,225,0.0,3.0,64,0.00,,,0.00,0552,Weather View 32 v70,2013-06-25 13:20:00,
2013-06-25 09:30:00,79.8,65.6,29.92,NW,315,0.0,6.0,62,0.00,,,0.00,0616,Weather View 32 v70,2013-06-25 13:30:00,
2013-06-25 09:40:00,80.5,66.2,29.92,West,270,0.0,6.0,62,0.00,,,0.00,0616,Weather View 32 v70,2013-06-25 13:40:00,
2013-06-25 09:50:00,81.4,65.7,29.92,West,270,0.0,6.0,59,0.00,,,0.00,0664,Weather View 32 v70,2013-06-25 13:50:00,
2013-06-25 09:55:00,81.9,65.6,29.92,WNW,293,0.0,6.0,58,0.00,,,0.00,0648,Weather View 32 v70,2013-06-25 13:55:00,
2013-06-25 10:05:00,82.1,65.3,29.92,NNW,338,0.0,6.0,57,0.00,,,0.00,0688,Weather View 32 v70,2013-06-25 14:05:00,
2013-06-25 10:15:00,82.0,65.7,29.92,NW,315,1.0,6.0,58,0.00,,,0.00,0688,Weather View 32 v70,2013-06-25 14:15:00,
2013-06-25 10:25:00,82.2,63.8,29.93,WNW,293,0.0,6.0,54,0.00,,,0.00,0704,Weather View 32 v70,2013-06-25 14:25:00,
2013-06-25 10:30:00,82.7,66.3,29.93,NW,315,0.0,6.0,58,0.00,,,0.00,0712,Weather View 32 v70,2013-06-25 14:30:00,
2013-06-25 10:35:00,82.8,64.9,29.92,West,270,0.0,6.0,55,0.00,,,0.00,0744,Weather View 32 v70,2013-06-25 14:35:00,
2013-06-25 10:40:00,82.9,63.9,29.93,WNW,293,0.0,9.0,53,0.00,,,0.00,0744,Weather View 32 v70,2013-06-25 14:40:00,
2013-06-25 10:50:00,83.0,65.1,29.93,NW,315,0.0,9.0,55,0.00,,,0.00,0752,Weather View 32 v70,2013-06-25 14:50:00,
2013-06-25 11:00:00,83.4,65.0,29.93,WNW,293,0.0,9.0,54,0.00,,,0.00,0792,Weather View 32 v70,2013-06-25 15:00:00,
2013-06-25 11:10:00,84.3,65.8,29.92,NW,315,0.0,9.0,54,0.00,,,0.00,0808,Weather View 32 v70,2013-06-25 15:10:00,
2013-06-25 11:20:00,84.9,66.3,29.92,West,270,0.0,9.0,54,0.00,,,0.00,0808,Weather View 32 v70,2013-06-25 15:20:00,
2013-06-25 11:25:00,85.0,66.4,29.92,WSW,248,0.0,9.0,54,0.00,,,0.00,0824,Weather View 32 v70,2013-06-25 15:25:00,
2013-06-25 11:30:00,85.7,67.1,29.92,WNW,293,0.0,9.0,54,0.00,,,0.00,0808,Weather View 32 v70,2013-06-25 15:30:00,
2013-06-25 11:40:00,85.6,67.0,29.91,SW,225,0.0,7.0,54,0.00,,,0.00,0824,Weather View 32 v70,2013-06-25 15:40:00,
2013-06-25 11:45:00,85.7,67.1,29.92,WNW,293,0.0,7.0,54,0.00,,,0.00,0824,Weather View 32 v70,2013-06-25 15:45:00,
2013-06-25 11:50:00,86.1,67.5,29.91,WSW,248,5.0,7.0,54,0.00,,,0.00,0832,Weather View 32 v70,2013-06-25 15:50:00,
2013-06-25 11:55:00,86.1,66.4,29.91,WSW,248,0.0,7.0,52,0.00,,,0.00,0824,Weather View 32 v70,2013-06-25 15:55:00,
2013-06-25 12:00:00,86.4,66.6,29.91,WSW,248,0.0,7.0,52,0.00,,,0.00,0848,Weather View 32 v70,2013-06-25 16:00:00,
2013-06-25 12:10:00,86.7,66.9,29.90,West,270,0.0,7.0,52,0.00,,,0.00,0832,Weather View 32 v70,2013-06-25 16:10:00,
2013-06-25 12:20:00,86.9,65.4,29.91,SSE,158,0.0,7.0,49,0.00,,,0.00,0880,Weather View 32 v70,2013-06-25 16:20:00,
2013-06-25 12:30:00,87.0,64.9,29.90,West,270,0.0,7.0,48,0.00,,,0.00,0864,Weather View 32 v70,2013-06-25 16:30:00,
2013-06-25 12:40:00,88.1,68.7,29.91,NW,315,0.0,7.0,53,0.00,,,0.00,0880,Weather View 32 v70,2013-06-25 16:40:00,
2013-06-25 12:50:00,88.3,64.8,29.90,WSW,248,1.0,7.0,46,0.00,,,0.00,0848,Weather View 32 v70,2013-06-25 16:50:00,
2013-06-25 12:55:00,88.5,67.4,29.90,WSW,248,0.0,6.0,50,0.00,,,0.00,0864,Weather View 32 v70,2013-06-25 16:55:00,
2013-06-25 13:05:00,88.7,64.6,29.90,East,90,0.0,6.0,45,0.00,,,0.00,0848,Weather View 32 v70,2013-06-25 17:05:00,
2013-06-25 13:10:00,88.7,63.3,29.90,WNW,293,0.0,6.0,43,0.00,,,0.00,0856,Weather View 32 v70,2013-06-25 17:10:00,
2013-06-25 13:20:00,88.6,64.5,29.89,WSW,248,5.0,8.0,45,0.00,,,0.00,0880,Weather View 32 v70,2013-06-25 17:20:00,
2013-06-25 13:25:00,88.3,66.6,29.89,West,270,0.0,8.0,49,0.00,,,0.00,0832,Weather View 32 v70,2013-06-25 17:25:00,
2013-06-25 13:35:00,88.7,63.3,29.88,SE,135,0.0,8.0,43,0.00,,,0.00,0848,Weather View 32 v70,2013-06-25 17:35:00,
2013-06-25 13:40:00,88.6,63.8,29.89,West,270,0.0,8.0,44,0.00,,,0.00,0864,Weather View 32 v70,2013-06-25 17:40:00,
2013-06-25 13:50:00,89.0,64.8,29.88,West,270,4.0,8.0,45,0.00,,,0.00,0840,Weather View 32 v70,2013-06-25 17:50:00,
2013-06-25 13:55:00,88.8,65.9,29.87,WNW,293,0.0,8.0,47,0.00,,,0.00,0832,Weather View 32 v70,2013-06-25 17:55:00,
2013-06-25 14:00:00,89.3,65.1,29.87,WNW,293,0.0,8.0,45,0.00,,,0.00,0832,Weather View 32 v70,2013-06-25 18:00:00,
2013-06-25 14:10:00,88.8,65.3,29.87,WNW,293,0.0,8.0,46,0.00,,,0.00,0784,Weather View 32 v70,2013-06-25 18:10:00,
2013-06-25 14:15:00,88.6,66.9,29.86,WSW,248,3.0,8.0,49,0.00,,,0.00,0808,Weather View 32 v70,2013-06-25 18:15:00,
2013-06-25 14:20:00,88.3,66.0,29.86,East,90,0.0,8.0,48,0.00,,,0.00,0800,Weather View 32 v70,2013-06-25 18:20:00,
2013-06-25 14:25:00,87.9,64.5,29.86,NW,315,3.0,9.0,46,0.00,,,0.00,0792,Weather View 32 v70,2013-06-25 18:25:00,
2013-06-25 14:35:00,88.1,65.8,29.86,WSW,248,0.0,9.0,48,0.00,,,0.00,0792,Weather View 32 v70,2013-06-25 18:35:00,
2013-06-25 14:44:00,88.1,65.2,29.86,West,270,0.0,9.0,47,0.00,,,0.00,0776,Weather View 32 v70,2013-06-25 18:44:00,
2013-06-25 14:50:00,87.8,65.6,29.85,South,180,0.0,9.0,48,0.00,,,0.00,0776,Weather View 32 v70,2013-06-25 18:50:00,
2013-06-25 15:00:00,87.8,66.8,29.85,WNW,293,0.0,9.0,50,0.00,,,0.00,0728,Weather View 32 v70,2013-06-25 19:00:00,
2013-06-25 15:10:00,87.3,65.7,29.85,West,270,6.0,9.0,49,0.00,,,0.00,0712,Weather View 32 v70,2013-06-25 19:10:00,
2013-06-25 15:20:00,86.5,66.1,29.85,SW,225,0.0,11.0,51,0.00,,,0.00,0664,Weather View 32 v70,2013-06-25 19:20:00,
2013-06-25 15:25:00,86.5,65.6,29.85,WNW,293,6.0,13.0,50,0.00,,,0.00,0608,Weather View 32 v70,2013-06-25 19:25:00,
2013-06-25 15:35:00,86.4,68.2,29.84,NNE,23,0.0,13.0,55,0.00,,,0.00,0648,Weather View 32 v70,2013-06-25 19:35:00,
2013-06-25 15:45:00,86.1,66.4,29.84,West,270,0.0,13.0,52,0.00,,,0.00,0576,Weather View 32 v70,2013-06-25 19:45:00,
2013-06-25 15:55:00,86.4,67.1,29.83,SW,225,0.0,13.0,53,0.00,,,0.00,0616,Weather View 32 v70,2013-06-25 19:55:00,
2013-06-25 16:00:00,86.3,67.0,29.83,WNW,293,0.0,13.0,53,0.00,,,0.00,0568,Weather View 32 v70,2013-06-25 20:00:00,
2013-06-25 16:10:00,85.7,68.1,29.83,SSW,203,0.0,13.0,56,0.00,,,0.00,0488,Weather View 32 v70,2013-06-25 20:10:00,
2013-06-25 16:15:00,85.5,66.3,29.83,North,0,0.0,13.0,53,0.00,,,0.00,0560,Weather View 32 v70,2013-06-25 20:15:00,
2013-06-25 16:25:00,85.7,68.6,29.82,West,270,0.0,7.0,57,0.00,,,0.00,0536,Weather View 32 v70,2013-06-25 20:25:00,
2013-06-25 16:30:00,85.6,67.0,29.82,ESE,113,0.0,6.0,54,0.00,,,0.00,0528,Weather View 32 v70,2013-06-25 20:30:00,
2013-06-25 16:35:00,85.2,67.7,29.82,WNW,293,0.0,6.0,56,0.00,,,0.00,0480,Weather View 32 v70,2013-06-25 20:35:00,
2013-06-25 16:40:00,84.7,67.2,29.81,North,0,0.0,6.0,56,0.00,,,0.00,0472,Weather View 32 v70,2013-06-25 20:40:00,
2013-06-25 16:46:00,83.9,65.9,29.82,East,90,0.0,6.0,55,0.00,,,0.00,0200,Weather View 32 v70,2013-06-25 20:46:00,
2013-06-25 16:55:00,82.3,66.0,29.82,NNW,338,0.0,6.0,58,0.00,,,0.00,0400,Weather View 32 v70,2013-06-25 20:55:00,
2013-06-25 17:00:00,82.4,66.1,29.82,WNW,293,0.0,6.0,58,0.00,,,0.00,0400,Weather View 32 v70,2013-06-25 21:00:00,
2013-06-25 17:05:00,82.4,66.6,29.82,West,270,0.0,6.0,59,0.00,,,0.00,0368,Weather View 32 v70,2013-06-25 21:05:00,
2013-06-25 17:15:00,81.6,65.9,29.81,WNW,293,0.0,6.0,59,0.00,,,0.00,0408,Weather View 32 v70,2013-06-25 21:15:00,
2013-06-25 17:25:00,81.4,66.6,29.81,WSW,248,0.0,5.0,61,0.00,,,0.00,0408,Weather View 32 v70,2013-06-25 21:25:00,
2013-06-25 17:35:00,80.9,66.1,29.81,WNW,293,0.0,6.0,61,0.00,,,0.00,0120,Weather View 32 v70,2013-06-25 21:35:00,
2013-06-25 17:40:00,80.0,66.6,29.81,WNW,293,0.0,6.0,64,0.00,,,0.00,0120,Weather View 32 v70,2013-06-25 21:40:00,
2013-06-25 17:46:00,79.6,65.9,29.81,NW,315,0.0,6.0,63,0.00,,,0.00,0024,Weather View 32 v70,2013-06-25 21:46:00,
2013-06-25 17:55:00,79.5,65.8,29.80,WSW,248,0.0,6.0,63,0.00,,,0.00,0096,Weather View 32 v70,2013-06-25 21:55:00,
2013-06-25 18:00:00,79.3,65.5,29.80,WSW,248,5.0,8.0,63,0.00,,,0.00,0160,Weather View 32 v70,2013-06-25 22:00:00,
2013-06-25 18:05:00,79.1,65.8,29.80,WNW,293,1.0,8.0,64,0.00,,,0.00,0112,Weather View 32 v70,2013-06-25 22:05:00,
2013-06-25 18:15:00,78.5,65.3,29.80,WSW,248,0.0,8.0,64,0.00,,,0.00,0056,Weather View 32 v70,2013-06-25 22:15:00,
2013-06-25 18:20:00,78.0,65.7,29.81,SW,225,3.0,11.0,66,0.00,,,0.00,0088,Weather View 32 v70,2013-06-25 22:20:00,
2013-06-25 18:30:00,77.8,65.9,29.81,NW,315,0.0,11.0,67,0.00,,,0.00,0072,Weather View 32 v70,2013-06-25 22:30:00,
2013-06-25 18:35:00,77.8,66.4,29.81,NNW,338,1.0,11.0,68,0.00,,,0.00,0072,Weather View 32 v70,2013-06-25 22:35:00,
2013-06-25 18:45:00,77.6,66.1,29.79,WNW,293,0.0,11.0,68,0.00,,,0.00,0040,Weather View 32 v70,2013-06-25 22:45:00,
2013-06-25 18:50:00,77.1,66.1,29.79,WNW,293,0.0,11.0,69,0.00,,,0.00,0032,Weather View 32 v70,2013-06-25 22:50:00,
2013-06-25 18:55:00,76.7,65.7,29.79,SSE,158,0.0,11.0,69,0.00,,,0.00,0008,Weather View 32 v70,2013-06-25 22:55:00,
2013-06-25 19:00:00,76.2,65.7,29.78,WNW,293,0.0,11.0,70,0.00,,,0.00,0008,Weather View 32 v70,2013-06-25 23:00:00,
2013-06-25 19:05:00,76.0,65.5,29.78,WNW,293,0.0,11.0,70,0.00,,,0.00,0008,Weather View 32 v70,2013-06-25 23:05:00,
2013-06-25 19:15:00,75.7,65.6,29.79,WNW,293,0.0,11.0,71,0.00,,,0.00,0032,Weather View 32 v70,2013-06-25 23:15:00,
2013-06-25 19:20:00,75.3,65.2,29.78,NW,315,0.0,11.0,71,0.00,,,0.00,0016,Weather View 32 v70,2013-06-25 23:20:00,
2013-06-25 19:25:00,75.2,65.1,29.78,WNW,293,0.0,9.0,71,0.00,,,0.00,0024,Weather View 32 v70,2013-06-25 23:25:00,
2013-06-25 19:30:00,75.1,65.0,29.78,NW,315,0.0,9.0,71,0.00,,,0.00,0024,Weather View 32 v70,2013-06-25 23:30:00,
2013-06-25 19:40:00,74.8,65.1,29.78,NNW,338,0.0,6.0,72,0.00,,,0.00,0016,Weather View 32 v70,2013-06-25 23:40:00,
2013-06-25 19:47:00,74.4,64.8,29.78,SW,225,0.0,6.0,72,0.00,,,0.00,0016,Weather View 32 v70,2013-06-25 23:47:00,
2013-06-25 19:55:00,74.1,64.5,29.78,West,270,0.0,5.0,72,0.00,,,0.00,0008,Weather View 32 v70,2013-06-25 23:55:00,
2013-06-25 20:00:00,74.0,64.4,29.78,South,180,0.0,4.0,72,0.00,,,0.00,0016,Weather View 32 v70,2013-06-26 00:00:00,
2013-06-25 20:05:00,73.8,64.1,29.77,SSE,158,0.0,4.0,72,0.00,,,0.00,0000,Weather View 32 v70,2013-06-26 00:05:00,
2013-06-25 20:10:00,73.8,64.5,29.77,West,270,0.0,4.0,73,0.00,,,0.00,0000,Weather View 32 v70,2013-06-26 00:10:00,
2013-06-25 20:20:00,73.4,64.6,29.77,NW,315,0.0,4.0,74,0.00,,,0.00,0000,Weather View 32 v70,2013-06-26 00:20:00,
2013-06-25 20:30:00,73.1,64.3,29.77,WNW,293,0.0,3.0,74,0.00,,,0.00,0000,Weather View 32 v70,2013-06-26 00:30:00,
2013-06-25 20:40:00,73.0,64.2,29.77,NW,315,0.0,3.0,74,0.00,,,0.00,0000,Weather View 32 v70,2013-06-26 00:40:00,
2013-06-25 20:45:00,72.9,64.5,29.77,West,270,0.0,2.0,75,0.00,,,0.00,0000,Weather View 32 v70,2013-06-26 00:45:00,
2013-06-25 20:50:00,72.8,64.0,29.77,West,270,0.0,2.0,74,0.00,,,0.00,0000,Weather View 32 v70,2013-06-26 00:50:00,
2013-06-25 20:55:00,72.8,64.0,29.77,West,270,0.0,2.0,74,0.00,,,0.00,0008,Weather View 32 v70,2013-06-26 00:55:00,
2013-06-25 21:05:00,72.6,63.8,29.77,WNW,293,0.0,2.0,74,0.00,,,0.00,0000,Weather View 32 v70,2013-06-26 01:05:00,
2013-06-25 21:15:00,72.4,64.0,29.77,WNW,293,0.0,2.0,75,0.00,,,0.00,0000,Weather View 32 v70,2013-06-26 01:15:00,
2013-06-25 21:20:00,72.3,63.9,29.77,West,270,0.0,2.0,75,0.00,,,0.00,0008,Weather View 32 v70,2013-06-26 01:20:00,
2013-06-25 21:25:00,72.2,63.8,29.77,WNW,293,0.0,2.0,75,0.00,,,0.00,0000,Weather View 32 v70,2013-06-26 01:25:00,
2013-06-25 21:30:00,72.2,63.8,29.77,WNW,293,0.0,0.0,75,0.00,,,0.00,0000,Weather View 32 v70,2013-06-26 01:30:00,
2013-06-25 21:40:00,72.1,63.7,29.77,West,270,0.0,0.0,75,0.00,,,0.00,0000,Weather View 32 v70,2013-06-26 01:40:00,
2013-06-25 21:45:00,72.1,63.7,29.78,West,270,0.0,0.0,75,0.00,,,0.00,0000,Weather View 32 v70,2013-06-26 01:45:00,
2013-06-25 21:50:00,72.0,64.0,29.77,WSW,248,0.0,0.0,76,0.00,,,0.00,0000,Weather View 32 v70,2013-06-26 01:50:00,
2013-06-25 22:00:00,71.9,63.8,29.77,West,270,0.0,0.0,76,0.00,,,0.00,0000,Weather View 32 v70,2013-06-26 02:00:00,
2013-06-25 22:05:00,71.9,63.8,29.77,West,270,0.0,0.0,76,0.00,,,0.00,0000,Weather View 32 v70,2013-06-26 02:05:00,
2013-06-25 22:10:00,71.9,63.8,29.77,WNW,293,0.0,0.0,76,0.00,,,0.00,0000,Weather View 32 v70,2013-06-26 02:10:00,
2013-06-25 22:20:00,71.9,63.8,29.78,WNW,293,0.0,2.0,76,0.00,,,0.00,0000,Weather View 32 v70,2013-06-26 02:20:00,
2013-06-25 22:25:00,71.9,63.8,29.78,WNW,293,0.0,2.0,76,0.00,,,0.00,0000,Weather View 32 v70,2013-06-26 02:25:00,
2013-06-25 22:30:00,71.9,63.8,29.78,WNW,293,0.0,3.0,76,0.00,,,0.00,0000,Weather View 32 v70,2013-06-26 02:30:00,
2013-06-25 22:40:00,71.7,63.7,29.79,WNW,293,0.0,3.0,76,0.00,,,0.00,0008,Weather View 32 v70,2013-06-26 02:40:00,
2013-06-25 22:45:00,71.9,63.8,29.80,WNW,293,0.0,3.0,76,0.00,,,0.00,0008,Weather View 32 v70,2013-06-26 02:45:00,
2013-06-25 22:55:00,71.9,63.5,29.81,NE,45,0.0,3.0,75,0.00,,,0.00,0000,Weather View 32 v70,2013-06-26 02:55:00,
2013-06-25 23:00:00,71.9,63.5,29.80,NE,45,0.0,3.0,75,0.00,,,0.00,0000,Weather View 32 v70,2013-06-26 03:00:00,
2013-06-25 23:05:00,71.9,63.1,29.80,NE,45,0.0,3.0,74,0.00,,,0.00,0008,Weather View 32 v70,2013-06-26 03:05:00,
2013-06-25 23:15:00,71.6,63.2,29.80,NE,45,0.0,3.0,75,0.00,,,0.00,0008,Weather View 32 v70,2013-06-26 03:15:00,
2013-06-25 23:25:00,71.6,63.6,29.80,NE,45,0.0,3.0,76,0.00,,,0.00,0008,Weather View 32 v70,2013-06-26 03:25:00,
2013-06-25 23:30:00,71.5,63.5,29.79,NE,45,0.0,1.0,76,0.00,,,0.00,0000,Weather View 32 v70,2013-06-26 03:30:00,
2013-06-25 23:40:00,71.2,63.2,29.80,NE,45,0.0,1.0,76,0.00,,,0.00,0008,Weather View 32 v70,2013-06-26 03:40:00,
2013-06-25 23:45:00,71.1,63.1,29.80,NE,45,0.0,1.0,76,0.00,,,0.00,0000,Weather View 32 v70,2013-06-26 03:45:00,
2013-06-25 23:50:00,71.0,63.4,29.79,NE,45,0.0,1.0,77,0.00,,,0.00,0000,Weather View 32 v70,2013-06-26 03:50:00,